Regional Weather Roundup
Issued by NWS

Home | Current Version | Previous Version | Text Only | Print | Product List | Glossary Off
Versions: 1 2 3 4 5 6 7 8 9 10 11 12 13 14 15 16 17 18 19 20 21 22 23 24 25 26 27 28 29 30 31 32 33 34 35 36 37 38 39 40 41 42 43 44 45 46 47 48 49 50

000
ASUS45 KCYS 272110
RWRWY

WYOMING REGIONAL WEATHER ROUNDUP
NATIONAL WEATHER SERVICE CHEYENNE WY
300 PM MDT THU APR 27 2017

NOTE:  "FAIR" INDICATES FEW OR NO CLOUDS BELOW 12,000 FEET
WITH NO SIGNIFICANT WEATHER AND/OR OBSTRUCTIONS TO VISIBILITY.

WYZ001-272200-
YELLOWSTONE NATIONAL PARK

CITY           SKY/WX    TMP DP  RH WIND       PRES   REMARKS
LK YELLOWSTONE   N/A     32  21  64 MISG      29.67R
W YELLOWSTONE  NOT AVBL

$$
WYZ002>013-054>058-071-098>099-272200-
NORTHERN WYOMING

CITY           SKY/WX    TMP DP  RH WIND       PRES   REMARKS
JACKSON        PTSUNNY   37  25  60 S6        29.68S WCI  33
CODY           PTSUNNY   46  33  60 NE25G33   29.60R
GREYBULL       FAIR      55  33  43 N31G40    29.52S
WORLAND        CLOUDY    45  39  79 NE10      29.54R
SHERIDAN       LGT SNOW  34  32  92 NW7       29.63R FOG     WCI  28
BUFFALO        CLOUDY    36  31  82 N20G25    29.59S WCI  25
GILLETTE       LGT RAIN  37  36  96 CALM      29.58R
HULETT         CLOUDY    41  34  75 E10       29.61R
NEWCASTLE      DRIZZLE   45  34  65 SE16G28   29.56R

$$
WYZ014>020-022>026-101>103-272200-
CENTRAL WYOMING

CITY           SKY/WX    TMP DP  RH WIND       PRES   REMARKS
BIG PINEY      PTSUNNY   41  19  41 N21G31    29.66R
PINEDALE       MOCLDY    37  25  60 NW28G38   29.64S WCI  25
DUBOIS         CLOUDY    34  23  64 W24       29.60S WCI  21
LANDER         LGT SNOW  33  33 100 SW6       29.59R FOG     WCI  28
RIVERTON       LGT SNOW  35  34  96 W14       29.59R FOG     WCI  26
CASPER         LGT RAIN  39  36  89 N8        29.55R WCI  33
DOUGLAS        LGT RAIN  41  38  89 N13       29.54S

$$
WYZ021-027>030-104>119-272200-
SOUTHERN WYOMING

CITY           SKY/WX    TMP DP  RH WIND       PRES   REMARKS
EVANSTON       PTSUNNY   39  24  55 W28G35    29.75R WCI  28
KEMMERER         N/A     36  25  64 W28G39    29.71R WCI  23
FORT BRIDGER   CLOUDY    38  25  58 NW24G35   29.75S WCI  27
ROCK SPRINGS   CLOUDY    42  21  43 W32G39    29.64S
DIXON            N/A     45  23  40 W18G28    29.65S
RAWLINS        PTSUNNY   42  29  59 W32G45    29.57F
SARATOGA       MOCLDY    43  23  45 SW21      29.60S
LARAMIE        PTSUNNY   43  21  41 W22G28    29.54S
CHEYENNE       CLOUDY    37  31  78 E5        29.55F WCI  33
TORRINGTON     LGT RAIN  43  41  93 S8        29.53R
PINE BLUFFS    CLOUDY    36  36 100 NW14G23   29.58R WCI  27

$$



USA.gov is the U.S. government's official web portal to all federal, state and local government web resources and services.